Miscellaneous Local Product
Issued by NWS North Platte, NE

Home | Current Version | Previous Version | Graphics & Text | Print | Product List | Glossary On
Versions: 1 2 3 4 5 6 7 8 9 10 11 12 13 14 15 16 17 18 19 20 21 22 23 24 25 26 27 28 29 30 31 32 33 34 35 36 37 38 39 40 41 42 43 44 45 46 47 48 49 50
000
AXUS43 KLBF 271910
MISLBF


WESTERN AND NORTH CENTRAL NEBRASKA HOURLY WEATHER ROUNDUP
NATIONAL WEATHER SERVICE NORTH PLATTE NE
200 PM CDT FRI MAY 27 2016

NOTE: "FAIR" INDICATES FEW OR NO CLOUDS BELOW 12,000 FEET WITH NO
SIGNIFICANT WEATHER AND/OR OBSTRUCTIONS TO VISIBILITY.

NOTE: STATIONS NOT REPORTING VARIABLES SUCH AS SKY/WEATHER OR
PRESSURE ARE PROVIDED BY RAWS AND APRS NETWORKS AND ARE NOT UNDER
NATIONAL WEATHER SERVICE QUALITY CONTROL.

...OBSERVATIONS IN AND NEAR THE EASTERN PANHANDLE OF NEBRASKA...

CITY           SKY/WX    TMP DP  RH WIND       PRES   REMARKS
PINE RIDGE     CLOUDY    58  47  66 E15G22    29.88F
CHADRON        LGT RAIN  58  50  75 E12       29.87F
ALLIANCE       LGT RAIN  51  47  86 N8        29.89S
SIDNEY         MOSUNNY   56  45  66 N21       29.88S
CRESCENT LAKE    N/A     54  48  80 NE13G23     N/A
BIG SPRINGS      N/A     60  53  78 N7          N/A
$$

...OBSERVATIONS IN NORTHERN NEBRASKA AND FAR SOUTHERN SOUTH DAKOTA...

CITY           SKY/WX    TMP DP  RH WIND       PRES   REMARKS
WINNER         PTSUNNY   67  53  61 N12       29.81R
VALENTINE      CLOUDY    64  48  56 N14G21    29.84S
THEDFORD       CLOUDY    62  52  69 N15       29.83R
AINSWORTH      CLOUDY    64  53  65 NE14      29.82S
O`NEILL        CLOUDY    67  57  69 N5        29.80R
ORD            CLOUDY    68  57  68 SE13      29.77S
BROKEN BOW     LGT RAIN  61  57  87 N8        29.81R
BUTTE            N/A     61  57  87 NW10G20     N/A
CHAMBERS         N/A     70  58  66 N5          N/A
EWING            N/A     69  60  72 NW10        N/A
$$

...OBSERVATIONS IN SOUTHWEST NEBRASKA AND FAR NORTHEAST COLORADO...

CITY           SKY/WX    TMP DP  RH WIND       PRES   REMARKS
WRAY           CLOUDY    61  52  72 NE12      29.80S
IMPERIAL       CLOUDY    59  54  83 N14       29.79S
OGALLALA       CLOUDY    61  52  72 N16       29.82S
NORTH PLATTE   CLOUDY    62  53  72 NE17      29.79F
MCCOOK         CLOUDY    59  56  89 E10       29.77R
LEXINGTON      CLOUDY    62  57  82 E6        29.77F
PAXTON           N/A     61  56  84 N8          N/A
STAPLETON        N/A     64  56  75 NE3         N/A
GOTHENBURG       N/A     62  53  72 E3          N/A
CALLAWAY         N/A     58  53  85 NE8         N/A
$$

...OBSERVATIONS IN CENTRAL LINCOLN COUNTY AREA...

CITY           SKY/WX    TMP DP  RH WIND       PRES   REMARKS
N.P. AIRPORT   CLOUDY    62  53  72 NE17      29.79F
N.P. DOWNTOWN    N/A     63  54  72 NE12G20     N/A
N.P. SOUTHEAST   N/A     61  59  92 NE6         N/A
N.P. HILLCREST   N/A     63  54  73 NE17        N/A
$$

...SOME OBSERVATIONS FROM AROUND THE REGION...

CITY           SKY/WX    TMP DP  RH WIND       PRES   REMARKS
DENVER         TSTM      48  45  89 E13       29.91R FOG
LARAMIE        CLOUDY    53  32  44 N14       29.96F
CHEYENNE       CLOUDY    57  34  41 N20G26    29.92F
SCOTTSBLUFF    CLOUDY    59  46  62 E17G23    29.89F
RAPID CITY     CLOUDY    64  45  49 N10       29.86S
BISMARCK       MOSUNNY   70  48  45 NE6       29.82F
PIERRE         CLOUDY    68  53  58 CALM      29.80F
SIOUX FALLS    PTSUNNY   72  57  59 CALM      29.76S
OMAHA          PTSUNNY   74  60  61 SW7       29.75F
GRAND ISLAND   CLOUDY    66  59  78 E5        29.76F
KANSAS CITY    CLOUDY    75  64  68 SW6       29.74S
WICHITA        CLOUDY    75  66  73 SE10      29.69F
OKLAHOMA CITY  CLOUDY    79  62  56 S14       29.70F
DALLAS         CLOUDY    75  64  68 S16G22    29.73F
AMARILLO       MOSUNNY   73  36  25 W9        29.79F
DODGE CITY     MOSUNNY   72  53  51 W13G18    29.69S
HAYS           PTSUNNY   39 N/A N/A NE10      29.68F WCI  32
GOODLAND       LGT RAIN  59  53  80 NE16      29.75F
$$




USA.gov is the U.S. government's official web portal to all federal, state and local government web resources and services.